Simultaneous Nadir Overpasses (SNOs) Predictions

Prediction of SNOs between LANDSAT-8 and NOAA-19 Satellite Orbit:

Table of predicted SNOs for the next 14.0 days since TLE Epoch: 8/6/2016
Index Date (LANDSAT-8) Time (LANDSAT-8) Lat,Lon (LANDSAT-8) SZA (LANDSAT-8 ) Date (NOAA-19) Time (NOAA-19) Lat,Lon (NOAA-19) SZA (NOAA-19 ) Distance(km) Time Diff (sec)
1 08/08/2016 03:32:48 -75.43, -46.53 120.62 08/08/2016 03:31:41 -75.48, -49.33 120.62 78.33 67
2 08/08/2016 04:22:24 74.91, 119.70 58.84 08/08/2016 04:22:30 74.91, 119.69 58.85 0.40 6
3 08/10/2016 09:06:40 74.99, 48.84 59.57 08/10/2016 09:05:32 74.99, 48.76 59.56 2.36 68
4 08/10/2016 09:56:09 -74.92,-143.71 120.50 08/10/2016 09:56:32 -74.93,-143.81 120.49 3.20 23
5 08/12/2016 14:40:26 -74.95, 145.30 119.81 08/12/2016 14:39:34 -74.98, 145.34 119.78 3.12 52
6 08/12/2016 15:29:52 74.92, -47.13 60.18 08/12/2016 15:30:33 74.92, -47.26 60.18 3.92 41
7 08/14/2016 20:14:09 74.95,-118.13 60.88 08/14/2016 20:13:34 74.96,-118.07 60.90 2.48 35
8 08/14/2016 21:03:38 -74.88, 49.33 119.18 08/14/2016 21:04:35 -74.89, 49.38 119.16 1.81 57
9 08/17/2016 01:47:54 -74.95, -21.54 118.40 08/17/2016 01:47:37 -74.95, -21.49 118.41 1.72 17
10 08/17/2016 02:37:21 74.87, 145.88 61.52 08/17/2016 02:38:34 74.86, 146.03 61.52 4.50 73
11 08/19/2016 07:21:37 74.94, 74.99 62.31 08/19/2016 07:21:36 74.94, 75.07 62.32 2.26 1
